| time (UTC) | temp F | wind direction | speed knots | gust knots | rain 1hr in | rain 24hr in | rain mn in | humidity % | barometer mb |
| 20260506224533 | 46 | 259 | 0.9 | 0.0 | 0.00 | 0.00 | 0.63 | 100 | 1007.9 |
| 20260506223031 | 46 | 244 | 0.9 | 0.0 | 0.00 | 0.00 | 0.63 | 100 | 1008.1 |
| 20260506221521 | 47 | 286 | 0.9 | 0.0 | 0.00 | 0.00 | 0.62 | 100 | 1007.6 |
| 20260506220019 | 48 | 267 | 0.9 | 0.0 | 0.00 | 0.00 | 0.62 | 100 | 1007.1 |
| 20260506214526 | 49 | 236 | 1.7 | 0.0 | 0.00 | 0.00 | 0.60 | 100 | 1006.6 |
| 20260506213016 | 49 | 224 | 1.7 | 0.0 | 0.00 | 0.00 | 0.60 | 100 | 1006.3 |
| 20260506211506 | 50 | 252 | 1.7 | 0.0 | 0.00 | 0.00 | 0.60 | 100 | 1005.7 |
| 20260506210003 | 52 | 308 | 3.5 | 0.0 | 0.00 | 0.00 | 0.60 | 100 | 1005.5 |
| 20260506204557 | 55 | 268 | 5.2 | 0.0 | 0.00 | 0.00 | 0.59 | 100 | 1005.2 |
| 20260506203054 | 57 | 229 | 3.5 | 0.0 | 0.00 | 0.00 | 0.56 | 100 | 1004.4 |
| 20260506201549 | 57 | 205 | 4.3 | 0.0 | 0.00 | 0.00 | 0.56 | 100 | 1004.4 |
| 20260506200047 | 57 | 243 | 1.7 | 0.0 | 0.00 | 0.00 | 0.56 | 100 | 1004.3 |
| 20260506194542 | 57 | 233 | 1.7 | 0.0 | 0.00 | 0.00 | 0.56 | 100 | 1004.5 |
| 20260506193039 | 57 | 236 | 0.9 | 0.0 | 0.00 | 0.00 | 0.56 | 100 | 1004.6 |
| 20260506191533 | 57 | 242 | 4.3 | 0.0 | 0.00 | 0.00 | 0.56 | 100 | 1004.8 |
| 20260506190029 | 57 | 204 | 3.5 | 0.0 | 0.00 | 0.00 | 0.56 | 100 | 1004.7 |
| 20260506184541 | 57 | 209 | 2.6 | 0.0 | 0.00 | 0.00 | 0.56 | 100 | 1005.0 |
| 20260506183030 | 57 | 202 | 2.6 | 0.0 | 0.00 | 0.00 | 0.56 | 100 | 1004.7 |
| 20260506181519 | 57 | 180 | 3.5 | 0.0 | 0.00 | 0.00 | 0.56 | 100 | 1004.9 |
| 20260506180016 | 57 | 198 | 0.9 | 0.0 | 0.00 | 0.00 | 0.55 | 100 | 1005.1 |
| 20260506174510 | 57 | 204 | 1.7 | 0.0 | 0.00 | 0.00 | 0.54 | 100 | 1005.1 |
| 20260506173005 | 56 | 244 | 3.5 | 0.0 | 0.00 | 0.00 | 0.53 | 100 | 1005.2 |
| 20260506171502 | 56 | 239 | 2.6 | 0.0 | 0.00 | 0.00 | 0.50 | 100 | 1005.2 |
| 20260506170059 | 56 | 223 | 2.6 | 0.0 | 0.00 | 0.00 | 0.48 | 100 | 1005.1 |
| 20260506164605 | 56 | 225 | 1.7 | 0.0 | 0.00 | 0.00 | 0.46 | 100 | 1005.2 |
| 20260506163052 | 56 | 220 | 2.6 | 0.0 | 0.00 | 0.00 | 0.42 | 100 | 1005.3 |
| 20260506161548 | 57 | 219 | 0.9 | 0.0 | 0.00 | 0.00 | 0.35 | 100 | 1005.3 |
| 20260506160051 | 57 | 217 | 0.9 | 0.0 | 0.00 | 0.00 | 0.32 | 100 | 1005.3 |
| 20260506154538 | 57 | 212 | 0.9 | 0.0 | 0.00 | 0.00 | 0.31 | 100 | 1005.2 |
| 20260506153045 | 56 | 182 | 2.6 | 0.0 | 0.00 | 0.00 | 0.28 | 100 | 1005.4 |
| 20260506151529 | 56 | 208 | 1.7 | 0.0 | 0.00 | 0.00 | 0.28 | 100 | 1005.5 |
| 20260506150031 | 56 | 191 | 1.7 | 0.0 | 0.00 | 0.00 | 0.27 | 100 | 1005.7 |
| 20260506144525 | 56 | 190 | 2.6 | 0.0 | 0.00 | 0.00 | 0.26 | 100 | 1005.7 |
| 20260506143019 | 56 | 171 | 2.6 | 0.0 | 0.00 | 0.00 | 0.24 | 100 | 1005.7 |
| 20260506141514 | 56 | 178 | 2.6 | 0.0 | 0.00 | 0.00 | 0.22 | 100 | 1006.4 |
| 20260506140015 | 56 | 195 | 1.7 | 0.0 | 0.00 | 0.00 | 0.20 | 100 | 1006.4 |
| 20260506134506 | 55 | 202 | 1.7 | 0.0 | 0.00 | 0.00 | 0.17 | 100 | 1006.4 |
| 20260506133002 | 55 | 198 | 0.9 | 0.0 | 0.00 | 0.00 | 0.15 | 100 | 1006.4 |
| 20260506131558 | 55 | 198 | 1.7 | 0.0 | 0.00 | 0.00 | 0.14 | 100 | 1006.1 |
| 20260506124551 | 54 | 219 | 0.0 | 0.0 | 0.00 | 0.00 | 0.12 | 100 | 1006.0 |
| 20260506123047 | 54 | 219 | 0.0 | 0.0 | 0.00 | 0.00 | 0.11 | 100 | 1006.1 |
| 20260506121542 | 55 | 219 | 0.0 | 0.0 | 0.00 | 0.00 | 0.10 | 100 | 1006.5 |
| 20260506114536 | 56 | 219 | 0.9 | 0.0 | 0.00 | 0.00 | 0.07 | 18 | 1007.0 |
| 20260506113039 | 57 | 219 | 0.0 | 0.0 | 0.00 | 0.00 | 0.05 | 33 | 1006.9 |
| 20260506111528 | 58 | 219 | 1.7 | 0.0 | 0.00 | 0.00 | 0.03 | 50 | 1006.7 |
| 20260506104519 | 60 | 217 | 0.0 | 0.0 | 0.00 | 0.00 | 0.01 | 58 | 1006.2 |
| 20260506103015 | 60 | 217 | 0.9 | 0.0 | 0.00 | 0.00 | 0.01 | 58 | 1006.2 |
| 20260506101513 | 60 | 217 | 1.7 | 0.0 | 0.00 | 0.00 | 0.01 | 57 | 1006.0 |
| 20260506094504 | 59 | 229 | 0.9 | 0.0 | 0.00 | 0.00 | 0.01 | 56 | 1006.0 |
| 20260506093100 | 58 | 219 | 0.9 | 0.0 | 0.00 | 0.00 | 0.01 | 54 | 1006.0 |
| 20260506091600 | 57 | 219 | 0.9 | 0.0 | 0.00 | 0.00 | 0.01 | 43 | 1005.9 |
| 20260506084552 | 53 | 225 | 0.0 | 0.0 | 0.00 | 0.00 | 0.01 | 100 | 1005.9 |
| 20260506083046 | 53 | 225 | 0.0 | 0.0 | 0.00 | 0.00 | 0.01 | 100 | 1006.3 |
| 20260506081543 | 53 | 225 | 0.0 | 0.0 | 0.00 | 0.00 | 0.01 | 100 | 1006.3 |
| 20260506073030 | 53 | 225 | 0.0 | 0.0 | 0.00 | 0.00 | 0.01 | 100 | 1006.8 |
| 20260506071526 | 53 | 225 | 0.0 | 0.0 | 0.00 | 0.00 | 0.01 | 100 | 1006.9 |
| 20260506061509 | 53 | 225 | 0.0 | 0.0 | 0.00 | 0.00 | 0.01 | 100 | 1007.7 |
| 20260506044546 | 54 | 225 | 0.0 | 0.0 | 0.00 | 0.00 | 0.01 | 100 | 1008.3 |
| 20260506043042 | 55 | 225 | 0.9 | 0.0 | 0.00 | 0.00 | 0.01 | 100 | 1008.7 |
| 20260506041537 | 56 | 224 | 0.0 | 0.0 | 0.00 | 0.00 | 0.01 | 100 | 1008.5 |
| 20260506034531 | 56 | 223 | 0.0 | 0.0 | 0.00 | 0.00 | 0.18 | 100 | 1008.4 |
| 20260506033025 | 57 | 223 | 0.0 | 0.0 | 0.00 | 0.00 | 0.18 | 100 | 1008.1 |
| 20260506031521 | 57 | 223 | 0.0 | 0.0 | 0.00 | 0.00 | 0.18 | 100 | 1008.0 |
| 20260506024532 | 58 | 223 | 0.0 | 0.0 | 0.00 | 0.00 | 0.17 | 100 | 1008.0 |
| 20260506023013 | 58 | 223 | 0.0 | 0.0 | 0.00 | 0.00 | 0.17 | 100 | 1007.9 |
| 20260506021506 | 58 | 223 | 0.0 | 0.0 | 0.00 | 0.00 | 0.17 | 1 | 1007.9 |
| 20260506014501 | 60 | 223 | 0.0 | 0.0 | 0.00 | 0.00 | 0.17 | 15 | 1007.8 |
| 20260506013001 | 60 | 223 | 0.0 | 0.0 | 0.00 | 0.00 | 0.17 | 25 | 1007.7 |
| 20260506011501 | 60 | 223 | 0.0 | 0.0 | 0.00 | 0.00 | 0.17 | 26 | 1007.3 |
| 20260506004559 | 60 | 223 | 0.0 | 0.0 | 0.00 | 0.00 | 0.17 | 28 | 1007.3 |
| 20260506003059 | 60 | 223 | 0.0 | 0.0 | 0.00 | 0.00 | 0.17 | 28 | 1007.3 |
| 20260506001559 | 60 | 223 | 0.0 | 0.0 | 0.00 | 0.00 | 0.17 | 28 | 1006.9 |
| 20260506000159 | 60 | 223 | 0.0 | 0.0 | 0.00 | 0.00 | 0.17 | 30 | 1006.9 |
| 20260505234559 | 60 | 224 | 0.0 | 0.0 | 0.00 | 0.00 | 0.17 | 33 | 1006.9 |
| 20260505233058 | 60 | 223 | 0.0 | 0.0 | 0.00 | 0.00 | 0.17 | 33 | 1006.8 |
| 20260505231558 | 60 | 223 | 0.0 | 0.0 | 0.00 | 0.00 | 0.17 | 30 | 1006.3 |
| 20260505230158 | 60 | 223 | 0.0 | 0.0 | 0.00 | 0.00 | 0.17 | 29 | 1006.2 |